Year,Month,Day,Hour,Minute,Value (Times are PST for temperature in C)
2017,06,24,00,00,15.70
2017,06,24,00,01,15.70
2017,06,24,00,02,15.70
2017,06,24,00,03,15.70
2017,06,24,00,04,15.70
2017,06,24,00,05,15.70
2017,06,24,00,06,15.60
2017,06,24,00,07,15.60
2017,06,24,00,08,15.60
2017,06,24,00,09,15.60
2017,06,24,00,10,15.60
2017,06,24,00,11,15.60
2017,06,24,00,12,15.50
2017,06,24,00,13,15.50
2017,06,24,00,14,15.50
2017,06,24,00,15,15.50
2017,06,24,00,16,15.40
2017,06,24,00,17,15.40
2017,06,24,00,18,15.40
2017,06,24,00,19,15.40
2017,06,24,00,20,15.30
2017,06,24,00,21,15.30
2017,06,24,00,22,15.30
2017,06,24,00,23,15.30
2017,06,24,00,24,15.30
2017,06,24,00,25,15.30
2017,06,24,00,26,15.30
2017,06,24,00,27,15.30
2017,06,24,00,28,15.30
2017,06,24,00,29,15.30
2017,06,24,00,30,15.30
2017,06,24,00,31,15.20
2017,06,24,00,32,15.20
2017,06,24,00,33,15.10
2017,06,24,00,34,15.10
2017,06,24,00,35,15.10
2017,06,24,00,36,15.10
2017,06,24,00,37,15.00
2017,06,24,00,38,15.00
2017,06,24,00,39,15.00
2017,06,24,00,40,14.90
2017,06,24,00,41,14.90
2017,06,24,00,42,14.90
2017,06,24,00,43,14.90
2017,06,24,00,44,14.90
2017,06,24,00,45,14.90
2017,06,24,00,46,14.90
2017,06,24,00,47,14.90
2017,06,24,00,48,14.80
2017,06,24,00,49,14.80
2017,06,24,00,50,14.80
2017,06,24,00,51,14.80
2017,06,24,00,52,14.80
2017,06,24,00,53,14.80
2017,06,24,00,54,14.80
2017,06,24,00,55,14.80
2017,06,24,00,56,14.80
2017,06,24,00,57,14.70
2017,06,24,00,58,14.70
2017,06,24,00,59,14.70
2017,06,24,01,00,14.60
2017,06,24,01,01,14.60
2017,06,24,01,02,14.60
2017,06,24,01,03,14.60
2017,06,24,01,04,14.50
2017,06,24,01,05,14.50
2017,06,24,01,06,14.50
2017,06,24,01,07,14.50
2017,06,24,01,08,14.40
2017,06,24,01,09,14.40
2017,06,24,01,10,14.40
2017,06,24,01,11,14.40
2017,06,24,01,12,14.40
2017,06,24,01,13,14.40
2017,06,24,01,14,14.40
2017,06,24,01,15,14.40
2017,06,24,01,16,14.30
2017,06,24,01,17,14.30
2017,06,24,01,18,14.30
2017,06,24,01,19,14.30
2017,06,24,01,20,14.30
2017,06,24,01,21,14.30
2017,06,24,01,22,14.30
2017,06,24,01,23,14.30
2017,06,24,01,24,14.20
2017,06,24,01,25,14.20
2017,06,24,01,26,14.20
2017,06,24,01,27,14.20
2017,06,24,01,28,14.20
2017,06,24,01,29,14.20
2017,06,24,01,30,14.20
2017,06,24,01,31,14.20
2017,06,24,01,32,14.20
2017,06,24,01,33,14.10
2017,06,24,01,34,14.10
2017,06,24,01,35,14.10
2017,06,24,01,36,14.10
2017,06,24,01,37,14.10
2017,06,24,01,38,14.00
2017,06,24,01,39,14.00
2017,06,24,01,40,14.00
2017,06,24,01,41,14.00
2017,06,24,01,42,14.00
2017,06,24,01,43,14.00
2017,06,24,01,44,14.00
2017,06,24,01,45,14.00
2017,06,24,01,46,14.00
2017,06,24,01,47,14.00
2017,06,24,01,48,14.00
2017,06,24,01,49,14.00
2017,06,24,01,50,14.00
2017,06,24,01,51,14.00
2017,06,24,01,52,14.00
2017,06,24,01,53,14.00
2017,06,24,01,54,14.00
2017,06,24,01,55,14.00
2017,06,24,01,56,14.00
2017,06,24,01,57,14.00
2017,06,24,01,58,13.90
2017,06,24,01,59,13.90
2017,06,24,02,00,13.90
2017,06,24,02,01,13.90
2017,06,24,02,02,13.90
2017,06,24,02,03,13.90
2017,06,24,02,04,13.90
2017,06,24,02,05,13.80
2017,06,24,02,06,13.80
2017,06,24,02,07,13.80
2017,06,24,02,08,13.80
2017,06,24,02,09,13.70
2017,06,24,02,10,13.70
2017,06,24,02,11,13.70
2017,06,24,02,12,13.70
2017,06,24,02,13,13.70
2017,06,24,02,14,13.70
2017,06,24,02,15,13.60
2017,06,24,02,16,13.60
2017,06,24,02,17,13.60
2017,06,24,02,18,13.60
2017,06,24,02,19,13.60
2017,06,24,02,20,13.60
2017,06,24,02,21,13.60
2017,06,24,02,22,13.60
2017,06,24,02,23,13.50
2017,06,24,02,24,13.50
2017,06,24,02,25,13.50
2017,06,24,02,26,13.50
2017,06,24,02,27,13.50
2017,06,24,02,28,13.50
2017,06,24,02,29,13.50
2017,06,24,02,30,13.50
2017,06,24,02,31,13.40
2017,06,24,02,32,13.40
2017,06,24,02,33,13.40
2017,06,24,02,34,13.40
2017,06,24,02,35,13.40
2017,06,24,02,36,13.40
2017,06,24,02,37,13.50
2017,06,24,02,38,13.50
2017,06,24,02,39,13.50
2017,06,24,02,40,13.50
2017,06,24,02,41,13.50
2017,06,24,02,42,13.50
2017,06,24,02,43,13.50
2017,06,24,02,44,13.50
2017,06,24,02,45,13.50
2017,06,24,02,46,13.50
2017,06,24,02,47,13.50
2017,06,24,02,48,13.50
2017,06,24,02,49,13.40
2017,06,24,02,50,13.40
2017,06,24,02,51,13.40
2017,06,24,02,52,13.40
2017,06,24,02,53,13.40
2017,06,24,02,54,13.30
2017,06,24,02,55,13.30
2017,06,24,02,56,13.30
2017,06,24,02,57,13.30
2017,06,24,02,58,13.30
2017,06,24,02,59,13.30
2017,06,24,03,00,13.30
2017,06,24,03,01,13.20
2017,06,24,03,02,13.20
2017,06,24,03,03,13.20
2017,06,24,03,04,13.20
2017,06,24,03,05,13.20
2017,06,24,03,06,13.10
2017,06,24,03,07,13.10
2017,06,24,03,08,13.10
2017,06,24,03,09,13.10
2017,06,24,03,10,13.00
2017,06,24,03,11,13.00
2017,06,24,03,12,13.00
2017,06,24,03,13,13.00
2017,06,24,03,14,13.00
2017,06,24,03,15,13.00
2017,06,24,03,16,13.00
2017,06,24,03,17,12.90
2017,06,24,03,18,12.90
2017,06,24,03,19,12.90
2017,06,24,03,20,12.90
2017,06,24,03,21,12.90
2017,06,24,03,22,12.90
2017,06,24,03,23,12.90
2017,06,24,03,24,12.80
2017,06,24,03,25,12.80
2017,06,24,03,26,12.80
2017,06,24,03,27,12.80
2017,06,24,03,28,12.80
2017,06,24,03,29,12.80
2017,06,24,03,30,12.80
2017,06,24,03,31,12.80
2017,06,24,03,32,12.80
2017,06,24,03,33,12.80
2017,06,24,03,34,12.80
2017,06,24,03,35,12.80
2017,06,24,03,36,12.70
2017,06,24,03,37,12.70
2017,06,24,03,38,12.70
2017,06,24,03,39,12.70
2017,06,24,03,40,12.70
2017,06,24,03,41,12.60
2017,06,24,03,42,12.60
2017,06,24,03,43,12.60
2017,06,24,03,44,12.60
2017,06,24,03,45,12.50
2017,06,24,03,46,12.50
2017,06,24,03,47,12.50
2017,06,24,03,48,12.50
2017,06,24,03,49,12.40
2017,06,24,03,50,12.40
2017,06,24,03,51,12.40
2017,06,24,03,52,12.40
2017,06,24,03,53,12.40
2017,06,24,03,54,12.40
2017,06,24,03,55,12.40
2017,06,24,03,56,12.40
2017,06,24,03,57,12.30
2017,06,24,03,58,12.30
2017,06,24,03,59,12.30
2017,06,24,04,00,12.30
2017,06,24,04,01,12.30
2017,06,24,04,02,12.30
2017,06,24,04,03,12.30
2017,06,24,04,04,12.30
2017,06,24,04,05,12.30
2017,06,24,04,06,12.30
2017,06,24,04,07,12.30
2017,06,24,04,08,12.30
2017,06,24,04,09,12.30
2017,06,24,04,10,12.30
2017,06,24,04,11,12.30
2017,06,24,04,12,12.30
2017,06,24,04,13,12.30
2017,06,24,04,14,12.20
2017,06,24,04,15,12.20
2017,06,24,04,16,12.20
2017,06,24,04,17,12.20
2017,06,24,04,18,12.20
2017,06,24,04,19,12.20
2017,06,24,04,20,12.20
2017,06,24,04,21,12.20
2017,06,24,04,22,12.20
2017,06,24,04,23,12.10
2017,06,24,04,24,12.10
2017,06,24,04,25,12.10
2017,06,24,04,26,12.10
2017,06,24,04,27,12.10
2017,06,24,04,28,12.10
2017,06,24,04,29,12.10
2017,06,24,04,30,12.20
2017,06,24,04,31,12.20
2017,06,24,04,32,12.20
2017,06,24,04,33,12.20
2017,06,24,04,34,12.20
2017,06,24,04,35,12.20
2017,06,24,04,36,12.20
2017,06,24,04,37,12.20
2017,06,24,04,38,12.20
2017,06,24,04,39,12.20
2017,06,24,04,40,12.20
2017,06,24,04,41,12.20
2017,06,24,04,42,12.20
2017,06,24,04,43,12.20
2017,06,24,04,44,12.10
2017,06,24,04,45,12.10
2017,06,24,04,46,12.10
2017,06,24,04,47,12.10
2017,06,24,04,48,12.00
2017,06,24,04,49,12.00
2017,06,24,04,50,12.00
2017,06,24,04,51,12.00
2017,06,24,04,52,12.00
2017,06,24,04,53,12.00
2017,06,24,04,54,12.00
2017,06,24,04,55,12.00
2017,06,24,04,56,12.00
2017,06,24,04,57,12.00
2017,06,24,04,58,12.00
2017,06,24,04,59,12.00
2017,06,24,05,00,12.00
2017,06,24,05,01,12.00
2017,06,24,05,02,12.00
2017,06,24,05,03,12.00
2017,06,24,05,04,12.00
2017,06,24,05,05,12.00
2017,06,24,05,06,12.00
2017,06,24,05,07,12.00
2017,06,24,05,08,12.00
2017,06,24,05,09,12.00
2017,06,24,05,10,12.00
2017,06,24,05,11,12.00
2017,06,24,05,12,12.00
2017,06,24,05,13,12.00
2017,06,24,05,14,12.00
2017,06,24,05,15,11.90
2017,06,24,05,16,11.90
2017,06,24,05,17,11.90
2017,06,24,05,18,11.90
2017,06,24,05,19,11.90
2017,06,24,05,20,11.90
2017,06,24,05,21,11.90
2017,06,24,05,22,11.90
2017,06,24,05,23,11.90
2017,06,24,05,24,11.90
2017,06,24,05,25,11.90
2017,06,24,05,26,12.00
2017,06,24,05,27,12.00
2017,06,24,05,28,12.00
2017,06,24,05,29,12.00
2017,06,24,05,30,12.00
2017,06,24,05,31,12.00
2017,06,24,05,32,12.00
2017,06,24,05,33,12.00
2017,06,24,05,34,12.10
2017,06,24,05,35,12.10
2017,06,24,05,36,12.00
2017,06,24,05,37,12.00
2017,06,24,05,38,12.00
2017,06,24,05,39,12.00
2017,06,24,05,40,12.00
2017,06,24,05,41,12.00
2017,06,24,05,42,12.00
2017,06,24,05,43,12.00
2017,06,24,05,44,12.00
2017,06,24,05,45,12.00
2017,06,24,05,46,12.00
2017,06,24,05,47,12.00
2017,06,24,05,48,12.00
2017,06,24,05,49,12.00
2017,06,24,05,50,12.00
2017,06,24,05,51,11.90
2017,06,24,05,52,11.90
2017,06,24,05,53,11.90
2017,06,24,05,54,11.90
2017,06,24,05,55,11.90
2017,06,24,05,56,11.90
2017,06,24,05,57,11.90
2017,06,24,05,58,11.90
2017,06,24,05,59,11.90
2017,06,24,06,00,11.90
2017,06,24,06,01,11.90
2017,06,24,06,02,11.90
2017,06,24,06,03,11.90
2017,06,24,06,04,11.90
2017,06,24,06,05,11.90
2017,06,24,06,06,11.90
2017,06,24,06,07,12.00
2017,06,24,06,08,12.00
2017,06,24,06,09,12.10
2017,06,24,06,10,12.10
2017,06,24,06,11,12.20
2017,06,24,06,12,12.30
2017,06,24,06,13,12.30
2017,06,24,06,14,12.40
2017,06,24,06,15,12.50
2017,06,24,06,16,12.50
2017,06,24,06,17,12.60
2017,06,24,06,18,12.60
2017,06,24,06,19,12.70
2017,06,24,06,20,12.80
2017,06,24,06,21,12.80
2017,06,24,06,22,12.90
2017,06,24,06,23,12.90
2017,06,24,06,24,13.00
2017,06,24,06,25,13.10
2017,06,24,06,26,13.10
2017,06,24,06,27,13.20
2017,06,24,06,28,13.20
2017,06,24,06,29,13.30
2017,06,24,06,30,13.30
2017,06,24,06,31,13.50
2017,06,24,06,32,13.50
2017,06,24,06,33,13.60
2017,06,24,06,34,13.70
2017,06,24,06,35,13.70
2017,06,24,06,36,13.80
2017,06,24,06,37,13.90
2017,06,24,06,38,14.00
2017,06,24,06,39,14.10
2017,06,24,06,40,14.20
2017,06,24,06,41,14.20
2017,06,24,06,42,14.30
2017,06,24,06,43,14.40
2017,06,24,06,44,14.40
2017,06,24,06,45,14.50
2017,06,24,06,46,14.50
2017,06,24,06,47,14.60
2017,06,24,06,48,14.70
2017,06,24,06,49,14.80
2017,06,24,06,50,14.90
2017,06,24,06,51,15.00
2017,06,24,06,52,15.00
2017,06,24,06,53,15.10
2017,06,24,06,54,15.20
2017,06,24,06,55,15.30
2017,06,24,06,56,15.30
2017,06,24,06,57,15.40
2017,06,24,06,58,15.50
2017,06,24,06,59,15.60
2017,06,24,07,00,15.70
2017,06,24,07,01,15.80
2017,06,24,07,02,16.00
2017,06,24,07,03,16.10
2017,06,24,07,04,16.20
2017,06,24,07,05,16.30
2017,06,24,07,06,16.40
2017,06,24,07,07,16.40
2017,06,24,07,08,16.60
2017,06,24,07,09,16.60
2017,06,24,07,10,16.70
2017,06,24,07,11,16.70
2017,06,24,07,12,16.80
2017,06,24,07,13,16.90
2017,06,24,07,14,17.00
2017,06,24,07,15,17.10
2017,06,24,07,16,17.20
2017,06,24,07,17,17.30
2017,06,24,07,18,17.30
2017,06,24,07,19,17.30
2017,06,24,07,20,17.40
2017,06,24,07,21,17.50
2017,06,24,07,22,17.50
2017,06,24,07,23,17.60
2017,06,24,07,24,17.60
2017,06,24,07,25,17.70
2017,06,24,07,26,17.70
2017,06,24,07,27,17.80
2017,06,24,07,28,17.90
2017,06,24,07,29,17.90
2017,06,24,07,30,18.00
2017,06,24,07,31,18.20
2017,06,24,07,32,18.30
2017,06,24,07,33,18.40
2017,06,24,07,34,18.50
2017,06,24,07,35,18.60
2017,06,24,07,36,18.70
2017,06,24,07,37,18.70
2017,06,24,07,38,18.80
2017,06,24,07,39,18.90
2017,06,24,07,40,18.90
2017,06,24,07,41,19.10
2017,06,24,07,42,19.10
2017,06,24,07,43,19.20
2017,06,24,07,44,19.30
2017,06,24,07,45,19.40
2017,06,24,07,46,19.50
2017,06,24,07,47,19.60
2017,06,24,07,48,19.70
2017,06,24,07,49,19.80
2017,06,24,07,50,19.90
2017,06,24,07,51,20.00
2017,06,24,07,52,20.10
2017,06,24,07,53,20.20
2017,06,24,07,54,20.20
2017,06,24,07,55,20.30
2017,06,24,07,56,20.40
2017,06,24,07,57,20.50
2017,06,24,07,58,20.60
2017,06,24,07,59,20.60
2017,06,24,08,00,20.60
2017,06,24,08,01,20.60
2017,06,24,08,02,20.50
2017,06,24,08,03,20.30
2017,06,24,08,04,20.20
2017,06,24,08,05,20.20
2017,06,24,08,06,20.20
2017,06,24,08,07,20.20
2017,06,24,08,08,20.20
2017,06,24,08,09,20.20
2017,06,24,08,10,20.20
2017,06,24,08,11,20.20
2017,06,24,08,12,20.20
2017,06,24,08,13,20.20
2017,06,24,09,04,19.50
2017,06,24,09,05,19.60
2017,06,24,09,06,19.80
2017,06,24,09,07,19.90
2017,06,24,09,08,20.10
2017,06,24,09,09,20.30
2017,06,24,09,10,20.50
2017,06,24,09,11,20.60
2017,06,24,09,12,20.80
2017,06,24,09,13,20.90
2017,06,24,09,14,21.00
2017,06,24,09,15,21.10
2017,06,24,09,16,21.20
2017,06,24,09,17,21.20
2017,06,24,09,18,21.20
2017,06,24,09,19,21.20
2017,06,24,09,20,21.20
2017,06,24,09,21,21.20
2017,06,24,09,22,21.10
2017,06,24,09,23,21.00
2017,06,24,09,24,21.00
2017,06,24,09,25,21.00
2017,06,24,09,26,21.00
2017,06,24,09,27,20.90
2017,06,24,09,28,21.00
2017,06,24,09,29,21.00
2017,06,24,09,30,20.90
2017,06,24,09,31,20.90
2017,06,24,09,32,20.90
2017,06,24,09,33,20.90
2017,06,24,09,34,20.90
2017,06,24,09,35,21.00
2017,06,24,09,36,21.10
2017,06,24,09,37,21.30
2017,06,24,09,38,21.50
2017,06,24,09,39,21.70
2017,06,24,09,40,22.00
2017,06,24,09,41,22.30
2017,06,24,09,42,22.70
2017,06,24,09,43,22.90
2017,06,24,09,44,23.20
2017,06,24,09,45,23.40
2017,06,24,09,46,23.60
2017,06,24,09,47,23.70
2017,06,24,09,48,23.90
2017,06,24,09,49,24.10
2017,06,24,09,50,24.20
2017,06,24,09,51,24.30
2017,06,24,09,52,24.40
2017,06,24,09,53,24.50
2017,06,24,09,54,24.50
2017,06,24,09,55,24.60
2017,06,24,09,56,24.70
2017,06,24,09,57,24.70
2017,06,24,09,58,24.80
2017,06,24,09,59,24.80
2017,06,24,10,00,24.90
2017,06,24,10,01,24.90
2017,06,24,10,02,25.00
2017,06,24,10,03,25.00
2017,06,24,10,04,25.10
2017,06,24,10,05,25.20
2017,06,24,10,06,25.20
2017,06,24,10,07,25.10
2017,06,24,10,08,25.10
2017,06,24,10,09,25.00
2017,06,24,10,10,25.00
2017,06,24,10,11,24.90
2017,06,24,10,12,24.90
2017,06,24,10,13,24.90
2017,06,24,10,14,24.90
2017,06,24,10,15,24.90
2017,06,24,10,16,24.90
2017,06,24,10,17,25.00
2017,06,24,10,18,25.00
2017,06,24,10,19,25.00
2017,06,24,10,20,25.10
2017,06,24,10,21,25.10
2017,06,24,10,22,25.10
2017,06,24,10,23,25.10
2017,06,24,10,24,25.20
2017,06,24,10,25,25.20
2017,06,24,10,26,25.20
2017,06,24,10,27,25.20
2017,06,24,10,28,25.20
2017,06,24,10,29,25.20
2017,06,24,10,30,25.30
2017,06,24,10,31,25.40
2017,06,24,10,32,25.40
2017,06,24,10,33,25.50
2017,06,24,10,34,25.60
2017,06,24,10,35,25.60
2017,06,24,10,36,25.60
2017,06,24,10,37,25.70
2017,06,24,10,38,25.80
2017,06,24,10,39,25.80
2017,06,24,10,40,25.80
2017,06,24,10,41,25.90
2017,06,24,10,42,25.90
2017,06,24,10,43,26.00
2017,06,24,10,44,26.00
2017,06,24,10,45,26.00
2017,06,24,10,46,26.10
2017,06,24,10,47,26.10
2017,06,24,10,48,26.10
2017,06,24,10,49,26.10
2017,06,24,10,50,26.10
2017,06,24,10,51,26.10
2017,06,24,10,52,26.20
2017,06,24,10,53,26.30
2017,06,24,10,54,26.30
2017,06,24,10,55,26.30
2017,06,24,10,56,26.30
2017,06,24,10,57,26.30
2017,06,24,10,58,26.30
2017,06,24,10,59,26.30
2017,06,24,11,00,26.30
2017,06,24,11,01,26.40
2017,06,24,11,02,26.40
2017,06,24,11,03,26.40
2017,06,24,11,04,26.30
2017,06,24,11,05,26.30
2017,06,24,11,06,26.40
2017,06,24,11,07,26.40
2017,06,24,11,08,26.40
2017,06,24,11,09,26.30
2017,06,24,11,10,26.20
2017,06,24,11,11,26.10
2017,06,24,11,12,26.10
2017,06,24,11,13,26.10
2017,06,24,11,14,26.10
2017,06,24,11,15,26.00
2017,06,24,11,16,26.10
2017,06,24,11,17,26.10
2017,06,24,11,18,26.20
2017,06,24,11,19,26.20
2017,06,24,11,20,26.20
2017,06,24,11,21,26.30
2017,06,24,11,22,26.30
2017,06,24,11,23,26.40
2017,06,24,11,24,26.40
2017,06,24,11,25,26.40
2017,06,24,11,26,26.40
2017,06,24,11,27,26.40
2017,06,24,11,28,26.50
2017,06,24,11,29,26.60
2017,06,24,11,30,26.60
2017,06,24,11,31,26.60
2017,06,24,11,32,26.60
2017,06,24,11,33,26.70
2017,06,24,11,34,26.70
2017,06,24,11,35,26.70
2017,06,24,11,36,26.70
2017,06,24,11,37,26.80
2017,06,24,11,38,26.80
2017,06,24,11,39,26.80
2017,06,24,11,40,26.90
2017,06,24,11,41,26.90
2017,06,24,11,42,26.90
2017,06,24,11,43,26.90
2017,06,24,11,44,27.10
2017,06,24,11,45,27.10
2017,06,24,11,46,27.10
2017,06,24,11,47,27.10
2017,06,24,11,48,27.10
2017,06,24,11,49,27.10
2017,06,24,11,50,27.10
2017,06,24,11,51,27.20
2017,06,24,11,52,27.10
2017,06,24,11,53,27.10
2017,06,24,11,54,27.10
2017,06,24,11,55,27.10
2017,06,24,11,56,27.00
2017,06,24,11,57,26.90
2017,06,24,11,58,26.90
2017,06,24,11,59,26.90
2017,06,24,12,00,26.90
2017,06,24,12,01,26.80
2017,06,24,12,02,26.70
2017,06,24,12,03,26.70
2017,06,24,12,04,26.60
2017,06,24,12,05,26.60
2017,06,24,12,06,26.60
2017,06,24,12,07,26.60
2017,06,24,12,08,26.60
2017,06,24,12,09,26.60
2017,06,24,12,10,26.60
2017,06,24,12,11,26.60
2017,06,24,12,12,26.60
2017,06,24,12,13,26.60
2017,06,24,12,14,26.70
2017,06,24,12,15,26.80
2017,06,24,12,16,26.80
2017,06,24,12,17,26.80
2017,06,24,12,18,26.80
2017,06,24,12,19,26.90
2017,06,24,12,20,27.00
2017,06,24,12,21,27.10
2017,06,24,12,22,27.10
2017,06,24,12,23,27.20
2017,06,24,12,24,27.20
2017,06,24,12,25,27.30
2017,06,24,12,26,27.30
2017,06,24,12,27,27.30
2017,06,24,12,28,27.50
2017,06,24,12,29,27.60
2017,06,24,12,30,27.70
2017,06,24,12,31,27.80
2017,06,24,12,32,27.90
2017,06,24,12,33,27.90
2017,06,24,12,34,27.90
2017,06,24,12,35,27.90
2017,06,24,12,36,27.80
2017,06,24,12,37,27.80
2017,06,24,12,38,27.70
2017,06,24,12,39,27.60
2017,06,24,12,40,27.50
2017,06,24,12,41,27.30
2017,06,24,12,42,27.30
2017,06,24,12,43,27.20
2017,06,24,12,44,27.20
2017,06,24,12,45,27.20
2017,06,24,12,46,27.20
2017,06,24,12,47,27.10
2017,06,24,12,48,27.10
2017,06,24,12,49,27.10
2017,06,24,12,50,27.10
2017,06,24,12,51,27.10
2017,06,24,12,52,27.10
2017,06,24,12,53,27.10
2017,06,24,12,54,27.10
2017,06,24,12,55,27.10
2017,06,24,12,56,27.20
2017,06,24,12,57,27.30
2017,06,24,12,58,27.30
2017,06,24,12,59,27.40
2017,06,24,13,00,27.40
2017,06,24,13,01,27.50
2017,06,24,13,02,27.60
2017,06,24,13,03,27.60
2017,06,24,13,04,27.60
2017,06,24,13,05,27.50
2017,06,24,13,06,27.40
2017,06,24,13,07,27.40
2017,06,24,13,08,27.30
2017,06,24,13,09,27.30
2017,06,24,13,10,27.30
2017,06,24,13,11,27.30
2017,06,24,13,12,27.30
2017,06,24,13,13,27.30
2017,06,24,13,14,27.30
2017,06,24,13,15,27.30
2017,06,24,13,16,27.20
2017,06,24,13,17,27.20
2017,06,24,13,18,27.20
2017,06,24,13,19,27.20
2017,06,24,13,20,27.20
2017,06,24,13,21,27.30
2017,06,24,13,22,27.30
2017,06,24,13,23,27.30
2017,06,24,13,24,27.30
2017,06,24,13,25,27.30
2017,06,24,13,26,27.30
2017,06,24,13,27,27.30
2017,06,24,13,28,27.30
2017,06,24,13,29,27.30
2017,06,24,13,30,27.30
2017,06,24,13,31,27.30
2017,06,24,13,32,27.30
2017,06,24,13,33,27.30
2017,06,24,13,34,27.30
2017,06,24,13,35,27.30
2017,06,24,13,36,27.30
2017,06,24,13,37,27.30
2017,06,24,13,38,27.30
2017,06,24,13,39,27.20
2017,06,24,13,40,27.20
2017,06,24,13,41,27.20
2017,06,24,13,42,27.20
2017,06,24,13,43,27.30
2017,06,24,13,44,27.30
2017,06,24,13,45,27.30
2017,06,24,13,46,27.30
2017,06,24,13,47,27.30
2017,06,24,13,48,27.30
2017,06,24,13,49,27.30
2017,06,24,13,50,27.30
2017,06,24,13,51,27.30
2017,06,24,13,52,27.40
2017,06,24,13,53,27.60
2017,06,24,13,54,27.70
2017,06,24,13,55,27.90
2017,06,24,13,56,28.00
2017,06,24,13,57,28.00
2017,06,24,13,58,28.00
2017,06,24,13,59,28.00
2017,06,24,14,00,28.10
2017,06,24,14,01,28.10
2017,06,24,14,02,28.10
2017,06,24,14,03,28.10
2017,06,24,14,04,28.10
2017,06,24,14,05,28.10
2017,06,24,14,06,28.10
2017,06,24,14,07,28.10
2017,06,24,14,08,28.10
2017,06,24,14,09,28.00
2017,06,24,14,10,28.10
2017,06,24,14,11,28.10
2017,06,24,14,12,28.20
2017,06,24,14,13,28.20
2017,06,24,14,14,28.20
2017,06,24,14,15,28.30
2017,06,24,14,16,28.30
2017,06,24,14,17,28.30
2017,06,24,14,18,28.30
2017,06,24,14,19,28.30
2017,06,24,14,20,28.40
2017,06,24,14,21,28.40
2017,06,24,14,22,28.40
2017,06,24,14,23,28.30
2017,06,24,14,24,28.30
2017,06,24,14,25,28.40
2017,06,24,14,26,28.40
2017,06,24,14,27,28.50
2017,06,24,14,28,28.60
2017,06,24,14,29,28.70
2017,06,24,14,30,28.80
2017,06,24,14,31,28.70
2017,06,24,14,32,28.70
2017,06,24,14,33,28.70
2017,06,24,14,34,28.70
2017,06,24,14,35,28.80
2017,06,24,14,36,28.90
2017,06,24,14,37,29.00
2017,06,24,14,38,29.20
2017,06,24,14,39,29.30
2017,06,24,14,40,29.30
2017,06,24,14,41,29.40
2017,06,24,14,42,29.50
2017,06,24,14,43,29.60
2017,06,24,14,44,29.70
2017,06,24,14,45,29.70
2017,06,24,14,46,29.70
2017,06,24,14,47,29.70
2017,06,24,14,48,29.70
2017,06,24,14,49,29.60
2017,06,24,14,50,29.70
2017,06,24,14,51,29.70
2017,06,24,14,52,29.70
2017,06,24,14,53,29.70
2017,06,24,14,54,29.70
2017,06,24,14,55,29.70
2017,06,24,14,56,29.80
2017,06,24,14,57,29.80
2017,06,24,14,58,29.70
2017,06,24,14,59,29.80
2017,06,24,15,00,29.80
2017,06,24,15,01,29.90
2017,06,24,15,02,29.90
2017,06,24,15,03,29.90
2017,06,24,15,04,29.90
2017,06,24,15,05,30.00
2017,06,24,15,06,30.10
2017,06,24,15,07,30.10
2017,06,24,15,08,30.20
2017,06,24,15,09,30.30
2017,06,24,15,10,30.40
2017,06,24,15,11,30.50
2017,06,24,15,12,30.60
2017,06,24,15,13,30.60
2017,06,24,15,14,30.60
2017,06,24,15,15,30.60
2017,06,24,15,16,30.40
2017,06,24,15,17,30.40
2017,06,24,15,18,30.30
2017,06,24,15,19,30.30
2017,06,24,15,20,30.20
2017,06,24,15,21,30.20
2017,06,24,15,22,30.20
2017,06,24,15,23,30.20
2017,06,24,15,24,30.30
2017,06,24,15,25,30.30
2017,06,24,15,26,30.40
2017,06,24,15,27,30.40
2017,06,24,15,28,30.40
2017,06,24,15,29,30.50
2017,06,24,15,30,30.60
2017,06,24,15,31,30.60
2017,06,24,15,32,30.60
2017,06,24,15,33,30.60
2017,06,24,15,34,30.60
2017,06,24,15,35,30.60
2017,06,24,15,36,30.70
2017,06,24,15,37,30.70
2017,06,24,15,38,30.70
2017,06,24,15,39,30.80
2017,06,24,15,40,30.80
2017,06,24,15,41,30.80
2017,06,24,15,42,30.80
2017,06,24,15,43,30.90
2017,06,24,15,44,30.90
2017,06,24,15,45,30.90
2017,06,24,15,46,30.90
2017,06,24,15,47,30.90
2017,06,24,15,48,31.00
2017,06,24,15,49,31.00
2017,06,24,15,50,31.10
2017,06,24,15,51,31.10
2017,06,24,15,52,31.20
2017,06,24,15,53,31.20
2017,06,24,15,54,31.20
2017,06,24,15,55,31.20
2017,06,24,15,56,31.20
2017,06,24,15,57,31.20
2017,06,24,15,58,31.10
2017,06,24,15,59,31.10
2017,06,24,16,00,31.00
2017,06,24,16,01,31.00
2017,06,24,16,02,31.00
2017,06,24,16,03,31.00
2017,06,24,16,04,31.00
2017,06,24,16,05,30.90
2017,06,24,16,06,30.90
2017,06,24,16,07,30.90
2017,06,24,16,08,31.00
2017,06,24,16,09,31.00
2017,06,24,16,10,31.10
2017,06,24,16,11,31.10
2017,06,24,16,12,31.10
2017,06,24,16,13,31.10
2017,06,24,16,14,31.20
2017,06,24,16,15,31.20
2017,06,24,16,16,31.30
2017,06,24,16,17,31.30
2017,06,24,16,18,31.40
2017,06,24,16,19,31.40
2017,06,24,16,20,31.40
2017,06,24,16,21,31.50
2017,06,24,16,22,31.60
2017,06,24,16,23,31.60
2017,06,24,16,24,31.60
2017,06,24,16,25,31.60
2017,06,24,16,26,31.50
2017,06,24,16,27,31.40
2017,06,24,16,28,31.30
2017,06,24,16,29,31.30
2017,06,24,16,30,31.20
2017,06,24,16,31,31.20
2017,06,24,16,32,31.00
2017,06,24,16,33,30.90
2017,06,24,16,34,30.90
2017,06,24,16,35,30.80
2017,06,24,16,36,30.80
2017,06,24,16,37,30.80
2017,06,24,16,38,30.80
2017,06,24,16,39,30.80
2017,06,24,16,40,30.90
2017,06,24,16,41,30.90
2017,06,24,16,42,30.90
2017,06,24,16,43,30.90
2017,06,24,16,44,31.00
2017,06,24,16,45,31.10
2017,06,24,16,46,31.20
2017,06,24,16,47,31.20
2017,06,24,16,48,31.20
2017,06,24,16,49,31.20
2017,06,24,16,50,31.20
2017,06,24,16,51,31.20
2017,06,24,16,52,31.10
2017,06,24,16,53,31.10
2017,06,24,16,54,31.10
2017,06,24,16,55,31.10
2017,06,24,16,56,31.10
2017,06,24,16,57,31.10
2017,06,24,16,58,31.10
2017,06,24,16,59,31.10
2017,06,24,17,00,31.10
2017,06,24,17,01,31.20
2017,06,24,17,02,31.20
2017,06,24,17,03,31.30
2017,06,24,17,04,31.40
2017,06,24,17,05,31.40
2017,06,24,17,06,31.50
2017,06,24,17,07,31.60
2017,06,24,17,08,31.70
2017,06,24,17,09,31.80
2017,06,24,17,10,31.80
2017,06,24,17,11,31.90
2017,06,24,17,12,31.90
2017,06,24,17,13,31.90
2017,06,24,17,14,31.90
2017,06,24,17,15,31.90
2017,06,24,17,16,31.90
2017,06,24,17,17,31.90
2017,06,24,17,18,31.90
2017,06,24,17,19,31.80
2017,06,24,17,20,31.60
2017,06,24,17,21,31.50
2017,06,24,17,22,31.40
2017,06,24,17,23,31.40
2017,06,24,17,24,31.30
2017,06,24,17,25,31.20
2017,06,24,17,26,31.10
2017,06,24,17,27,31.00
2017,06,24,17,28,31.00
2017,06,24,17,29,30.90
2017,06,24,17,30,30.90
2017,06,24,17,31,31.00
2017,06,24,17,32,31.00
2017,06,24,17,33,31.00
2017,06,24,17,34,30.90
2017,06,24,17,35,30.90
2017,06,24,17,36,30.90
2017,06,24,17,37,30.90
2017,06,24,17,38,30.90
2017,06,24,17,39,30.90
2017,06,24,17,40,31.00
2017,06,24,17,41,31.10
2017,06,24,17,42,31.10
2017,06,24,17,43,31.20
2017,06,24,17,44,31.20
2017,06,24,17,45,31.20
2017,06,24,17,46,31.20
2017,06,24,17,47,31.20
2017,06,24,17,48,31.20
2017,06,24,17,49,31.20
2017,06,24,17,50,31.20
2017,06,24,17,51,31.20
2017,06,24,17,52,31.20
2017,06,24,17,53,31.20
2017,06,24,17,54,31.20
2017,06,24,17,55,31.20
2017,06,24,17,56,31.20
2017,06,24,17,57,31.20
2017,06,24,17,58,31.20
2017,06,24,17,59,31.20
2017,06,24,18,00,31.10
2017,06,24,18,01,31.10
2017,06,24,18,02,31.10
2017,06,24,18,03,31.10
2017,06,24,18,04,31.10
2017,06,24,18,05,31.20
2017,06,24,18,06,31.20
2017,06,24,18,07,31.20
2017,06,24,18,08,31.30
2017,06,24,18,09,31.30